Flag for U.S.A. Weather past 2 weeks in Baltimore, Maryland, U.S.A.

Now
77 °F

Cloudy.


Feels Like: 79 °F
Forecast: 67 / 80 °F
Wind: 5 mph from South

Location: Baltimore-Washington International Airport

Current Time: Aug 1, 2014 at 6:58:19 PM

Latest Report: Aug 1, 2014 at 5:54 PM


Visibility: 10 mi

Pressure: 30.16 "Hg

Humidity: 62%

Dew point: 63 °F

Location of BaltimoreLocation

Historic Weather in Baltimore — Graph

°F

Baltimore temperature yesterday

Maximum temperature yesterday: 86 °F (at 2:54 PM)
Minimum temperature yesterday: 59 °F (at 4:54 AM)
Average temperature yesterday: 74 °F

Past Weeks' High & Low Weather Summary

 TemperatureHumidityPressure
High93 °F (Jul 23, 4:54 PM)97% (Jul 23, 10:54 PM)30.23 "Hg (Jul 23, 10:54 PM)
Low56 °F (Jul 30, 4:54 AM)32% (Jul 30, 2:54 PM)29.57 "Hg (Jul 28, 4:54 AM)
Average74 °F67%30.00 "Hg
* Reported Jul 17 4:54 PM — Aug 1 4:54 PM, Baltimore, Weather by CustomWeather, © 2014

Note: Actual official high and low records may vary slightly from our data, if they occured in-between our weather recording intervals... More about our weather records

Advertising

Baltimore weather history for previous 24 hours

 ConditionsComfort  
Time TempWeatherWind HumidityBarometerVisibility
4:54 PM
Aug 1
78 °FCloudy.3 mph56%30.16 "Hg10 mi
3:54 PM78 °FCloudy.7 mph50%30.16 "Hg10 mi
2:54 PM80 °FCloudy.8 mph49%30.16 "Hg10 mi
1:54 PM80 °FCloudy.10 mph56%30.18 "Hg10 mi
12:54 PM76 °FLight rain. More clouds than sun.8 mph77%30.19 "Hg7 mi
11:54 AM78 °FMostly cloudy.5 mph71%30.19 "Hg9 mi
10:54 AM76 °FMore clouds than sun.5 mph77%30.18 "Hg9 mi
9:54 AM75 °FOvercast.6 mph76%30.16 "Hg9 mi
8:54 AM75 °FMostly cloudy.6 mph76%30.16 "Hg9 mi
7:54 AM73 °FPartly sunny.5 mph81%30.16 "Hg8 mi
6:54 AM71 °FFog.No wind90%30.15 "Hg6 mi
5:54 AM71 °FPartly cloudy.No wind90%30.13 "Hg8 mi
4:54 AM71 °FMostly cloudy.No wind87%30.13 "Hg9 mi
3:54 AM71 °FPartly cloudy.3 mph84%30.13 "Hg9 mi
2:54 AM71 °FPartly cloudy.No wind84%30.13 "Hg10 mi
1:54 AM71 °FPartly cloudy.No wind81%30.13 "Hg10 mi
12:54 AM73 °FPartly cloudy.3 mph76%30.13 "Hg10 mi
11:54 PM
Jul 31
74 °FPartly cloudy.3 mph71%30.12 "Hg10 mi
10:54 PM75 °FPartly cloudy.3 mph71%30.11 "Hg10 mi
9:54 PM76 °FPartly cloudy.5 mph69%30.11 "Hg10 mi
8:54 PM78 °FBroken clouds.5 mph66%30.09 "Hg10 mi
7:54 PM79 °FBroken clouds.5 mph65%30.09 "Hg10 mi
6:54 PM80 °FBroken clouds.8 mph60%30.07 "Hg10 mi
Weather by CustomWeather, © 2014

See weather overviewHow to use our weather pages